Location: Ferintosh
(52.7647°N, 112.9692°W)
Time: 17:54:03
(UTC+00:00)

Explorer 7 - Pass Details

Date: 22 May 2024
Orbit: 466 x 622 km, 50.3° (Epoch: 15 June)

Event Time Altitude Azimuth Distance (km) Brightness Sun altitude
Rises 11:15:24 0° 278° (W) 2,664 9.9 -1.8°
Reaches altitude 10° 11:17:42 10° 269° (W) 1,801 9.0 -1.6°
Maximum altitude 11:21:25 34° 205° (SSW) 934 7.6 -1.1°
Drops below altitude 10° 11:25:19 10° 140° (SE) 1,887 9.6 -0.6°
Sets 11:27:47 0° 131° (SE) 2,811 10.6 -0.3°
